Location: Arborea
(39.7744°N, 8.5819°E)
Time: 21:02:18
(UTC+00:00)

Landsat 5 - Pass Details

Date: 24 October 2021
Orbit: 528 x 652 km, 98.2° (Epoch: 06 December)

Event Time Altitude Azimuth Distance (km) Brightness Sun altitude
Rises 17:17:44 0° 17° (NNE) 2,939 6.8 -9.1°
Reaches altitude 10° 17:19:58 10° 22° (NNE) 2,040 5.9 -9.6°
Maximum altitude 17:24:22 57° 101° (E) 766 3.7 -10.4°
Drops below altitude 10° 17:28:47 10° 180° (S) 2,052 6.3 -11.3°
Sets 17:31:02 0° 184° (S) 2,958 7.2 -11.7°
